UTMN 2 (RS27S)

Last updated on Tue Jul 01 2025 00:03:07 GMT+0000 (Coordinated Universal Time)

1 57203U 23091AP 25181.54604673 .00006010 00000+0 26556-3 0 9997 2 57203 97.5582 240.5364 0008893 230.7012 129.3435 15.22066817110885
UTC large
Height (km)
Speed (km/s)
/
Latitude / Longitude
Inclination (degrees)
Orbital Period (minutes)
Azimuth
Elevation
Range (km)
Doppler Factor

Next 0 passes for location: London (51.5072 / 0.1276)

Sorry there are no passes over London.